Location: Pontbriand
(46.1542°N, 71.2542°W)
Time: 17:38:48
(UTC+00:00)

Envisat - Pass Details

Date: 03 December 2021
Orbit: 764 x 766 km, 98.2° (Epoch: 16 January)

Event Time Altitude Azimuth Distance (km) Brightness Sun altitude
Rises 22:27:27 0° 221° (SW) 3,222 7.3 -14.6°
Reaches altitude 10° 22:31:26 10° 252° (WSW) 2,304 6.9 -15.2°
Maximum altitude 22:33:16 12° 274° (W) 2,180 6.5 -15.5°
Drops below altitude 10° 22:35:06 10° 295° (WNW) 2,310 6.2 -15.8°
Sets 22:39:07 0° 327° (NNW) 3,244 6.5 -16.5°
